GW5630 Weather Reports


Display with metric or nautical units.
time (UTC)temp
F
wind
direction
speed
MPH
gust
MPH
rain 1hr
in
rain 24hr
in
rain mn
in
humidity
%
barometer
mb
20260510033506 53 248 3.0 7.0 0.00 0.41 0.41 85 1010.2
20260510033032 53 232 3.0 6.0 0.00 0.41 0.41 85 1010.2
20260510032503 53 226 2.0 4.0 0.00 0.41 0.41 85 1010.2
20260510032004 53 276 2.0 4.0 0.00 0.41 0.41 85 1010.2
20260510031508 53 251 2.0 4.0 0.00 0.41 0.41 84 1010.2
20260510031004 53 242 2.0 6.0 0.00 0.41 0.41 84 1010.2
20260510030506 53 239 3.0 6.0 0.00 0.41 0.41 84 1010.2
20260510030013 53 240 3.0 5.0 0.00 0.41 0.41 84 1010.4
20260510025511 53 249 3.0 6.0 0.00 0.41 0.41 84 1010.4
20260510025010 53 228 3.0 7.0 0.00 0.41 0.41 85 1010.4
20260510024517 53 253 3.0 7.0 0.00 0.41 0.41 85 1010.4
20260510024002 53 251 3.0 6.0 0.00 0.41 0.41 85 1010.4
20260510023503 53 242 3.0 5.0 0.00 0.41 0.41 85 1010.3
20260510023004 53 238 3.0 5.0 0.00 0.41 0.41 85 1010.4
20260510022503 53 254 2.0 4.0 0.00 0.41 0.41 84 1010.4
20260510022003 53 256 2.0 4.0 0.00 0.41 0.41 84 1010.3
20260510021525 53 257 2.0 7.0 0.00 0.41 0.41 84 1010.3
20260510021003 53 232 3.0 7.0 0.00 0.41 0.41 84 1010.4
20260510020504 53 234 2.0 4.0 0.00 0.41 0.41 84 1010.4
20260510020010 53 242 2.0 5.0 0.00 0.41 0.41 84 1010.3
20260510015512 53 248 2.0 6.0 0.00 0.41 0.41 84 1010.4
20260510015005 53 239 3.0 6.0 0.00 0.41 0.41 84 1010.3
20260510014515 53 234 2.0 5.0 0.00 0.41 0.41 84 1010.3
20260510014005 53 238 2.0 8.0 0.00 0.41 0.41 84 1010.2
20260510013506 53 248 4.0 8.0 0.00 0.41 0.41 84 1010.3
20260510013018 53 254 3.0 6.0 0.00 0.41 0.41 84 1010.2
20260510012508 53 255 3.0 5.0 0.00 0.41 0.41 84 1010.1
20260510012003 53 251 3.0 5.0 0.00 0.41 0.41 84 1010.2
20260510011504 53 251 3.0 4.0 0.00 0.41 0.41 84 1010.1
20260510011002 53 229 2.0 4.0 0.00 0.41 0.41 84 1010.0
20260510010502 53 246 2.0 4.0 0.00 0.41 0.41 84 1010.0
20260510010006 53 250 1.0 3.0 0.00 0.41 0.41 84 1009.9
20260510005504 53 252 1.0 4.0 0.00 0.41 0.41 84 1009.9
20260510005003 53 246 2.0 4.0 0.00 0.41 0.41 84 1009.9
20260510004525 53 246 2.0 4.0 0.00 0.41 0.41 84 1009.8
20260510004008 53 233 2.0 4.0 0.00 0.41 0.41 84 1009.8
20260510003505 53 259 3.0 5.0 0.00 0.41 0.41 84 1009.8
20260510003015 53 262 2.0 5.0 0.00 0.41 0.41 84 1009.7
20260510002505 54 263 2.0 5.0 0.00 0.41 0.41 84 1009.7
20260510002006 54 274 1.0 3.0 0.00 0.41 0.41 84 1009.8
20260510001527 54 234 1.0 3.0 0.00 0.41 0.41 83 1009.7
20260510001003 54 254 1.0 3.0 0.00 0.41 0.41 83 1009.6
20260510000503 54 257 1.0 2.0 0.00 0.41 0.41 83 1009.5
20260510000012 54 240 1.0 4.0 0.00 0.41 0.41 82 1009.6
20260509235503 54 242 2.0 4.0 0.00 0.41 0.41 82 1009.6
20260509235003 54 248 2.0 4.0 0.00 0.41 0.41 82 1009.5
20260509234507 54 249 2.0 4.0 0.00 0.41 0.41 82 1009.4
20260509234006 54 246 2.0 5.0 0.00 0.41 0.41 82 1009.3
20260509233505 55 254 2.0 7.0 0.00 0.41 0.41 82 1009.3
20260509233011 55 241 2.0 6.0 0.00 0.42 0.41 82 1009.3
20260509232506 55 258 3.0 8.0 0.00 0.42 0.41 82 1009.3
20260509232007 55 262 4.0 8.0 0.00 0.42 0.41 83 1009.2
20260509231519 55 267 3.0 7.0 0.00 0.42 0.41 83 1009.3
20260509231005 55 253 3.0 6.0 0.00 0.42 0.41 83 1009.2
20260509230506 55 258 3.0 5.0 0.00 0.42 0.41 84 1009.1
20260509230004 55 252 2.0 5.0 0.00 0.42 0.41 84 1009.2
20260509225503 55 258 3.0 7.0 0.00 0.42 0.41 84 1009.2
20260509225002 54 266 3.0 7.0 0.00 0.42 0.41 84 1009.2
20260509224505 54 249 3.0 6.0 0.00 0.42 0.41 85 1009.2
20260509224004 54 237 4.0 6.0 0.00 0.42 0.41 84 1009.1
20260509223504 54 242 2.0 7.0 0.00 0.42 0.41 85 1009.2
20260509223012 54 250 2.0 8.0 0.00 0.42 0.41 85 1009.3
20260509222504 54 246 4.0 7.0 0.00 0.42 0.41 85 1009.3
20260509222004 54 262 3.0 5.0 0.00 0.42 0.41 86 1009.5
20260509221516 55 254 2.0 7.0 0.00 0.42 0.41 86 1009.5
20260509221004 55 244 3.0 7.0 0.00 0.42 0.41 87 1009.5
20260509220508 55 260 2.0 4.0 0.00 0.42 0.41 88 1009.5
20260509220021 54 251 1.0 4.0 0.00 0.42 0.41 88 1009.5
20260509215510 54 269 0.0 4.0 0.00 0.42 0.41 89 1009.5
20260509215010 54 247 2.0 4.0 0.00 0.42 0.41 89 1009.6
20260509214504 54 237 2.0 4.0 0.00 0.42 0.41 89 1009.6
20260509214004 54 245 1.0 4.0 0.00 0.42 0.41 89 1009.6
20260509213504 54 245 2.0 4.0 0.00 0.42 0.41 90 1009.6
20260509213010 54 263 1.0 4.0 0.00 0.42 0.41 90 1009.7
20260509212503 54 255 2.0 4.0 0.00 0.42 0.41 90 1009.7
20260509212006 54 236 1.0 2.0 0.00 0.42 0.41 90 1009.7
20260509211511 54 232 0.0 2.0 0.00 0.42 0.41 90 1009.7
20260509211006 54 262 0.0 2.0 0.00 0.42 0.41 90 1009.7
20260509210510 54 263 0.0 2.0 0.00 0.42 0.41 90 1009.7
20260509210026 54 257 0.0 2.0 0.00 0.42 0.41 91 1009.7
20260509205505 54 257 1.0 2.0 0.00 0.42 0.41 91 1009.8
20260509205006 54 230 1.0 3.0 0.00 0.42 0.41 91 1009.9
20260509204524 54 250 2.0 3.0 0.00 0.42 0.41 92 1009.9
20260509204011 54 240 2.0 3.0 0.00 0.42 0.41 93 1010.0
20260509203502 54 234 1.0 3.0 0.00 0.42 0.41 93 1010.0
20260509203004 53 248 1.0 3.0 0.00 0.42 0.41 93 1010.0
20260509202504 53 257 1.0 3.0 0.00 0.42 0.41 92 1010.1
20260509202005 53 271 1.0 5.0 0.01 0.42 0.41 92 1010.1
20260509201509 53 249 3.0 5.0 0.01 0.43 0.41 92 1010.1
20260509201007 53 249 1.0 4.0 0.02 0.43 0.41 92 1010.2
20260509200504 52 257 2.0 4.0 0.02 0.43 0.41 93 1010.2
20260509200015 52 250 0.0 3.0 0.02 0.43 0.41 93 1010.2
20260509195503 52 241 0.0 0.0 0.02 0.43 0.41 92 1010.2
20260509195006 52 259 0.0 0.0 0.03 0.43 0.41 92 1010.2
20260509194520 51 259 0.0 2.0 0.03 0.43 0.41 92 1010.2
20260509194012 51 259 0.0 2.0 0.04 0.43 0.41 92 1010.2
20260509193513 51 263 1.0 3.0 0.05 0.43 0.41 92 1010.4
20260509193035 51 263 1.0 4.0 0.07 0.43 0.41 92 1010.4
20260509192510 51 252 2.0 4.0 0.08 0.43 0.41 92 1010.4
20260509192004 51 254 2.0 4.0 0.08 0.42 0.40 92 1010.5
20260509191510 51 245 2.0 4.0 0.09 0.42 0.40 92 1010.6
20260509191004 51 249 1.0 3.0 0.08 0.41 0.39 92 1010.6
20260509190503 51 255 1.0 4.0 0.09 0.41 0.39 92 1010.6
20260509190020 51 250 2.0 4.0 0.10 0.41 0.39 92 1010.6
20260509185508 51 257 3.0 4.0 0.11 0.41 0.39 92 1010.7
20260509185006 51 251 1.0 5.0 0.11 0.40 0.38 91 1010.7
20260509184525 51 248 2.0 7.0 0.12 0.40 0.38 91 1010.7
20260509184009 50 246 3.0 8.0 0.13 0.39 0.37 91 1010.6
20260509183504 50 248 4.0 8.0 0.13 0.38 0.36 91 1010.9
20260509183026 50 248 4.0 8.0 0.12 0.36 0.34 91 1010.9
20260509182508 50 257 4.0 7.0 0.12 0.35 0.33 91 1011.0
20260509182010 50 254 3.0 8.0 0.11 0.34 0.32 91 1011.0
20260509181525 50 261 4.0 8.0 0.11 0.33 0.31 91 1010.9
20260509181013 50 255 5.0 7.0 0.12 0.33 0.31 91 1010.8
20260509180505 50 260 3.0 7.0 0.11 0.32 0.30 90 1010.6
20260509180010 50 249 3.0 9.0 0.11 0.31 0.29 90 1010.8
20260509175504 50 240 3.0 9.0 0.11 0.30 0.28 90 1010.8
20260509175004 50 248 5.0 10.0 0.11 0.29 0.27 90 1011.0
20260509174517 51 244 5.0 10.0 0.12 0.28 0.26 90 1011.0
20260509174004 51 255 3.0 8.0 0.11 0.26 0.24 90 1010.9
20260509173507 51 269 2.0 8.0 0.10 0.25 0.23 90 1010.9
20260509173021 51 236 3.0 8.0 0.10 0.24 0.22 90 1010.9
20260509172507 51 260 3.0 8.0 0.10 0.23 0.21 90 1010.9
20260509172009 51 236 2.0 5.0 0.11 0.23 0.21 90 1010.9
20260509171536 51 251 2.0 8.0 0.10 0.22 0.20 90 1011.0
20260509171004 51 233 3.0 8.0 0.10 0.21 0.19 90 1011.0
20260509170504 51 229 3.0 7.0 0.10 0.21 0.19 90 1011.0
20260509170008 51 348 1.0 6.0 0.10 0.20 0.18 90 1011.1
20260509165505 51 249 1.0 6.0 0.09 0.19 0.17 89 1011.1
20260509165006 51 243 3.0 5.0 0.08 0.18 0.16 89 1011.1
20260509164513 51 250 2.0 7.0 0.06 0.16 0.14 89 1011.2
20260509164007 51 252 2.0 7.0 0.06 0.15 0.13 89 1011.1
20260509163507 51 283 1.0 4.0 0.06 0.15 0.13 89 1011.1
20260509163017 52 263 1.0 6.0 0.05 0.14 0.12 88 1011.1
20260509162510 52 262 1.0 6.0 0.04 0.13 0.11 88 1011.2
20260509162006 52 257 2.0 6.0 0.03 0.12 0.10 88 1011.3
20260509161529 52 239 3.0 8.0 0.03 0.12 0.10 87 1011.3
20260509161003 52 241 3.0 8.0 0.02 0.11 0.09 87 1011.3
20260509160503 52 245 3.0 8.0 0.02 0.11 0.09 87 1011.4
20260509160015 52 242 3.0 8.0 0.02 0.10 0.08 87 1011.3
20260509155504 52 242 4.0 7.0 0.02 0.10 0.08 87 1011.3
20260509155008 52 232 4.0 7.0 0.02 0.10 0.08 87 1011.2
20260509154512 52 241 3.0 6.0 0.02 0.10 0.08 87 1011.3
20260509154004 52 226 2.0 6.0 0.01 0.09 0.07 87 1011.2
20260509153504 52 257 2.0 9.0 0.01 0.09 0.07 86 1011.2
20260509153015 52 238 5.0 9.0 0.01 0.09 0.07 86 1011.2
20260509152504 52 250 3.0 7.0 0.01 0.09 0.07 85 1011.2
20260509152008 52 230 3.0 7.0 0.02 0.09 0.07 86 1011.4
20260509151522 52 257 2.0 8.0 0.02 0.09 0.07 86 1011.3
20260509151007 52 257 3.0 8.0 0.02 0.09 0.07 87 1011.4
20260509150511 52 233 3.0 7.0 0.02 0.09 0.07 86 1011.2
20260509150024 51 245 3.0 5.0 0.02 0.08 0.06 87 1011.3
20260509145505 51 259 3.0 5.0 0.02 0.08 0.06 87 1011.3
20260509145005 51 229 1.0 4.0 0.02 0.08 0.06 87 1011.4
20260509144510 51 252 2.0 3.0 0.02 0.08 0.06 87 1011.3
20260509144005 51 241 1.0 2.0 0.03 0.08 0.06 87 1011.2
20260509143507 51 258 0.0 2.0 0.03 0.08 0.06 87 1011.2
20260509143019 51 257 0.0 2.0 0.03 0.08 0.06 86 1011.2
20260509142505 51 337 0.0 2.0 0.04 0.08 0.06 86 1011.2
20260509142008 51 338 0.0 2.0 0.03 0.07 0.05 86 1011.0
20260509141524 51 279 0.0 2.0 0.03 0.07 0.05 85 1011.0
20260509141008 51 94 0.0 2.0 0.03 0.07 0.05 85 1011.1
20260509140507 51 254 0.0 2.0 0.03 0.07 0.05 85 1011.3
20260509140023 51 259 1.0 3.0 0.02 0.06 0.04 85 1011.5
20260509135508 51 271 1.0 3.0 0.03 0.06 0.04 84 1011.6
20260509135012 51 253 2.0 2.0 0.03 0.06 0.04 85 1011.6
20260509134526 51 246 1.0 2.0 0.03 0.06 0.04 85 1011.5
20260509134006 51 268 0.0 2.0 0.02 0.05 0.03 85 1011.3
20260509133504 51 268 0.0 2.0 0.02 0.05 0.03 83 1011.2
20260509133013 51 262 0.0 3.0 0.02 0.05 0.03 84 1011.2
20260509132505 51 262 0.0 3.0 0.01 0.04 0.02 83 1011.2
20260509132004 51 257 1.0 3.0 0.01 0.04 0.02 82 1011.3
20260509131521 51 273 0.0 2.0 0.01 0.04 0.02 81 1011.1
20260509131008 52 133 1.0 4.0 0.01 0.04 0.02 81 1011.0
20260509130506 51 46 1.0 5.0 0.01 0.04 0.02 81 1011.0
20260509130022 51 112 0.0 5.0 0.01 0.04 0.02 80 1011.0
20260509125511 51 93 0.0 3.0 0.00 0.03 0.01 80 1011.1
20260509125007 51 167 1.0 2.0 0.00 0.03 0.01 80 1011.0
20260509124524 51 258 0.0 2.0 0.00 0.03 0.01 81 1011.1
20260509124009 51 332 0.0 4.0 0.00 0.03 0.01 81 1011.0
20260509123511 51 240 0.0 4.0 0.00 0.03 0.01 80 1010.9
20260509123010 51 270 0.0 9.0 0.00 0.03 0.01 81 1010.8
20260509122503 51 90 2.0 9.0 0.00 0.03 0.01 81 1010.9
20260509122007 50 118 3.0 9.0 0.00 0.03 0.01 82 1010.9
20260509121523 50 94 1.0 6.0 0.00 0.03 0.01 84 1010.9
20260509121006 50 176 2.0 3.0 0.00 0.03 0.01 85 1010.9
20260509120508 49 67 1.0 3.0 0.00 0.03 0.01 86 1010.9
20260509120019 49 86 0.0 3.0 0.00 0.03 0.01 86 1011.0
20260509115506 49 89 0.0 2.0 0.00 0.03 0.01 87 1011.0
20260509115007 49 11 0.0 2.0 0.00 0.03 0.01 87 1010.8
20260509114522 49 74 0.0 2.0 0.00 0.03 0.01 87 1010.9
20260509114010 49 300 0.0 2.0 0.00 0.03 0.01 87 1010.9
20260509113512 49 80 0.0 2.0 0.01 0.03 0.01 87 1010.8
20260509113024 49 13 0.0 0.0 0.01 0.03 0.01 87 1010.9
20260509112508 49 9 0.0 1.0 0.01 0.03 0.01 87 1010.9
20260509112009 49 360 0.0 2.0 0.01 0.03 0.01 86 1011.0
20260509111512 49 109 0.0 2.0 0.01 0.03 0.01 85 1011.0
20260509111005 49 67 0.0 2.0 0.01 0.03 0.01 86 1011.1
20260509110505 49 13 0.0 2.0 0.01 0.03 0.01 86 1011.1
20260509110016 49 13 0.0 2.0 0.01 0.03 0.01 85 1011.0
20260509105504 49 51 0.0 0.0 0.01 0.03 0.01 86 1011.0
20260509105010 49 17 0.0 0.0 0.01 0.04 0.01 86 1011.0
20260509104531 49 97 0.0 0.0 0.01 0.04 0.01 85 1011.0
20260509104006 49 200 0.0 0.0 0.01 0.04 0.01 85 1011.0
20260509103508 49 254 0.0 2.0 0.00 0.03 0.00 85 1011.0
20260509103025 49 254 0.0 2.0 0.00 0.03 0.00 85 1011.1
20260509102506 48 224 0.0 1.0 0.00 0.03 0.00 85 1011.0
20260509102011 48 269 0.0 4.0 0.00 0.03 0.00 86 1011.0
20260509101526 48 123 0.0 4.0 0.00 0.03 0.00 85 1011.1
20260509101011 48 82 0.0 4.0 0.00 0.03 0.00 85 1010.9
20260509100511 48 348 0.0 2.0 0.00 0.03 0.00 87 1011.0
20260509100027 48 292 0.0 2.0 0.00 0.03 0.00 87 1011.0
20260509095505 48 202 0.0 2.0 0.00 0.03 0.00 87 1010.8
20260509095005 48 34 0.0 2.0 0.00 0.03 0.00 87 1010.8
20260509094522 48 116 0.0 3.0 0.00 0.03 0.00 88 1010.7
20260509094006 47 261 2.0 3.0 0.00 0.03 0.00 89 1010.9
20260509093506 47 31 1.0 3.0 0.00 0.03 0.00 89 1010.7
20260509093024 47 43 0.0 0.0 0.00 0.03 0.00 89 1010.9
20260509092509 47 36 0.0 2.0 0.00 0.03 0.00 89 1010.9
20260509092007 47 36 0.0 2.0 0.00 0.03 0.00 89 1011.0
20260509091526 47 50 0.0 0.0 0.00 0.03 0.00 89 1010.9
20260509091008 48 50 0.0 0.0 0.00 0.03 0.00 88 1011.0
20260509090509 48 50 0.0 0.0 0.00 0.03 0.00 88 1011.0
20260509090026 48 50 0.0 0.0 0.00 0.03 0.00 88 1011.2
20260509085507 48 71 0.0 0.0 0.00 0.03 0.00 86 1011.5
20260509085013 48 44 0.0 0.0 0.00 0.03 0.00 86 1011.6
20260509084523 48 38 0.0 0.0 0.00 0.03 0.00 86 1011.6
20260509084005 48 39 0.0 0.0 0.00 0.03 0.00 86 1011.6
20260509083505 48 39 0.0 0.0 0.00 0.03 0.00 85 1011.6
20260509083021 48 56 0.0 0.0 0.00 0.03 0.00 85 1011.6
20260509082509 48 52 0.0 0.0 0.00 0.03 0.00 85 1011.8
20260509082006 48 52 0.0 0.0 0.00 0.03 0.00 86 1011.9
20260509081510 48 52 0.0 1.0 0.00 0.03 0.00 86 1011.9
20260509081003 48 52 0.0 1.0 0.00 0.03 0.00 86 1011.9
20260509080503 48 52 0.0 0.0 0.00 0.03 0.00 86 1012.0
20260509080010 48 87 0.0 0.0 0.00 0.03 0.00 87 1012.1
20260509075505 48 100 0.0 0.0 0.00 0.03 0.00 87 1012.1
20260509075004 48 100 0.0 0.0 0.00 0.03 0.00 87 1012.1
20260509074514 48 105 0.0 0.0 0.00 0.03 0.00 87 1012.0
20260509074004 48 130 0.0 2.0 0.00 0.03 0.00 87 1012.0
20260509073504 48 130 0.0 2.0 0.00 0.03 0.00 87 1012.0
20260509073015 48 336 0.0 0.0 0.00 0.03 0.00 87 1012.0
20260509072505 48 293 0.0 0.0 0.00 0.03 0.00 87 1012.0
20260509072006 48 293 0.0 0.0 0.00 0.03 0.00 88 1012.2
20260509071504 47 291 0.0 0.0 0.00 0.03 0.00 88 1012.2
20260509071002 47 268 0.0 0.0 0.00 0.03 0.00 88 1012.3
20260509070502 48 264 0.0 0.0 0.00 0.03 0.00 89 1012.3
20260509070009 48 264 0.0 0.0 0.00 0.03 0.00 89 1012.3
20260509065504 48 264 0.0 0.0 0.00 0.03 0.00 89 1012.2
20260509065002 48 264 0.0 0.0 0.00 0.03 0.00 88 1012.2
20260509064512 48 264 0.0 0.0 0.00 0.03 0.00 88 1011.8
20260509064005 48 257 0.0 0.0 0.00 0.03 0.00 88 1011.8
20260509063506 48 254 0.0 0.0 0.00 0.03 0.00 87 1011.8
20260509063016 48 275 0.0 0.0 0.00 0.03 0.00 87 1011.9
20260509062512 48 275 0.0 0.0 0.00 0.03 0.00 87 1012.2
20260509062009 49 275 0.0 0.0 0.00 0.03 0.00 87 1012.3
20260509061515 49 275 0.0 0.0 0.00 0.03 0.00 86 1012.4
20260509061007 49 275 0.0 0.0 0.00 0.03 0.00 86 1012.5
20260509060502 49 275 0.0 0.0 0.00 0.03 0.00 86 1012.5
20260509060003 49 275 0.0 0.0 0.00 0.03 0.00 85 1012.7
20260509055503 49 275 0.0 0.0 0.00 0.03 0.00 85 1012.6
20260509055003 49 275 0.0 0.0 0.00 0.03 0.00 85 1012.8
20260509054513 49 275 0.0 0.0 0.00 0.03 0.00 85 1012.9
20260509054007 49 275 0.0 2.0 0.00 0.03 0.00 85 1012.9
20260509053506 49 275 0.0 3.0 0.00 0.03 0.00 85 1012.9
20260509053013 49 260 0.0 3.0 0.00 0.03 0.00 84 1013.1
20260509052505 49 247 1.0 4.0 0.00 0.03 0.00 85 1013.2
20260509052008 48 254 2.0 4.0 0.00 0.03 0.00 86 1013.1
20260509051528 48 234 1.0 3.0 0.00 0.03 0.00 87 1013.1
20260509051009 48 258 0.0 4.0 0.00 0.04 0.00 88 1012.7
20260509050509 48 263 1.0 4.0 0.00 0.04 0.00 88 1012.5
20260509050021 47 258 1.0 3.0 0.00 0.04 0.00 89 1012.7
20260509045505 47 284 0.0 3.0 0.00 0.07 0.00 89 1012.8
20260509045003 47 325 1.0 2.0 0.00 0.08 0.00 89 1012.8
20260509044510 47 9 0.0 0.0 0.00 0.09 0.00 89 1012.8
20260509044003 47 9 0.0 0.0 0.00 0.09 0.00 89 1012.6
20260509043507 47 9 0.0 0.0 0.00 0.09 0.00 89 1012.5
20260509043012 48 9 0.0 0.0 0.00 0.09 0.00 88 1012.4
20260509042503 48 5 0.0 0.0 0.00 0.09 0.00 88 1012.1
20260509042006 48 5 0.0 0.0 0.00 0.09 0.00 88 1012.1
20260509041515 48 5 0.0 0.0 0.00 0.09 0.00 88 1012.3
20260509041008 48 5 0.0 0.0 0.00 0.09 0.00 88 1012.3
20260509040509 48 5 0.0 0.0 0.00 0.09 0.00 88 1012.4
20260509040022 48 5 0.0 0.0 0.00 0.09 0.00 88 1012.5
20260509035510 48 5 0.0 0.0 0.00 0.09 0.09 88 1012.5
20260509035010 48 5 0.0 0.0 0.00 0.09 0.09 88 1012.6
20260509034519 48 5 0.0 0.0 0.00 0.09 0.09 87 1012.6
20260509034005 48 5 0.0 0.0 0.00 0.09 0.09 87 1012.7